Location: Goodmans Corner
(38.2049°N, 120.9872°W)
Time: 23:41:18
(UTC+00:00)

Tiangong 2 - Visible Passes

Search period start: 25 April 2019 00:00
Search period end: 05 May 2019 00:00
Orbit: 378 x 390 km, 42.8° (Epoch: 25 April)

Date Brightness Start Highest point End Pass type
(mag) Time Alt. Az. Time Alt. Az. Time Alt. Az.
30 Apr 3.2 12:41:42 10° SSW 12:44:09 21° SE 12:46:37 10° E visible
01 May 3.8 11:43:34 10° SSE 11:44:32 11° SE 11:45:30 10° ESE visible
02 May 2.1 12:18:21 12° SW 12:21:02 37° SSE 12:23:59 10° E visible
03 May 3.0 11:21:14 20° SSE 11:21:19 20° SE 11:23:44 10° E visible
04 May 1.1 11:56:14 24° SW 11:57:56 67° SSE 12:01:05 10° ENE visible
